Hourly Data Report for December 11, 2012

BAGOTVILLE A
QUEBEC

48°20'00.000" N
71°00'00.000" W
159.10 m
7060400
71727
YBG

Download Data

Hourly Data (December 2012)
Hourly Data Report for December 11, 2012
TIME
LST
Temp Definition
°C
Dew Point Definition
°C
Rel Hum Definition
%
Precip. Amount Definition
mm

Wind Dir Definition
10's deg

Wind Spd Definition
km/h
Visibility Definition
km
Stn Press Definition
kPa
Hmdx Definition


Wind Chill Definition


Weather Definition


00:00 -3.9 -6.2 84   30 19 24.1 97.96   -10 Mostly Cloudy
01:00 -3.8 -7.4 76   29 30 24.1 98.05   -11 Mostly Cloudy
02:00 -4.4 -8.9 71   30 32 19.3 98.20   -12 Snow Showers
03:00 -6.3 -10.3 73   30 35 8.0 98.31   -15 Snow Showers,Blowing Snow
04:00 -7.6 -11.5 74   29 32 6.4 98.46   -17 Snow Showers,Blowing Snow
05:00 -8.3 -11.2 80   27 22 4.8 98.60   -16 Snow Showers
06:00 -8.9 -11.9 79   30 26 12.9 98.70   -18 Snow Showers
07:00 -9.6 -12.8 77   29 30 9.7 98.83   -19 Snow Showers
08:00 -11.0 -13.6 81   30 26 19.3 98.95   -20 Mainly Clear
09:00 -11.4 -14.6 77   30 26 24.1 99.11   -21 Mainly Clear
10:00 -11.0 -14.1 78   31 28 24.1 99.17   -21 Mainly Clear
11:00 -10.8 -14.3 75   30 28 24.1 99.27   -20 Mainly Clear
12:00 -10.6 -14.5 73   30 26 6.4 99.34   -20 Snow Showers
13:00 -10.7 -15.1 70   30 20 9.7 99.41   -19 Snow Showers
14:00 -10.5 -13.0 82   30 15 12.9 99.42   -17 Snow Showers
15:00 -10.3 -13.7 76   31 13 32.2 99.51   -17 Snow Showers
16:00 -10.7 -13.3 81   33 7 16.1 99.62   -15 Snow Showers
17:00 -11.0 -13.2 84   33 6 16.1 99.75   -15 Snow Showers
18:00 -11.2 -13.4 84   32 7 12.9 99.79   -15 Snow Showers
19:00 -11.4 -13.6 84   32 9 16.1 99.88   -17 Snow Showers
20:00 -11.5 -13.8 83   30 9 16.1 99.97   -17 Snow Showers
21:00 -11.7 -14.5 80   28 7 16.1 100.00   -16 Snow Showers
22:00 -11.9 -14.7 80   29 13 12.9 100.06   -19 Snow Showers
23:00 -12.1 -14.5 82   29 11 12.9 100.11   -18 Snow Showers

Notes on Data Quality.

Legend

  • E = Estimated
  • M = Missing
  • NA = Not Available*
  • [empty] = Indicates an unobserved value
Date modified: